DW6193 Weather Reports


Display with metric or nautical units.
time (UTC)temp
F
wind
direction
speed
MPH
gust
MPH
rain 1hr
in
rain 24hr
in
rain mn
in
humidity
%
barometer
mb
20260503031536 65 248 5.0 11.0 0.00 0.00 0.00 1013.9
20260503031025 65 231 5.0 15.0 0.00 0.00 0.00 1013.9
20260503030525 65 183 7.0 15.0 0.00 0.00 0.00 1013.7
20260503030040 66 261 5.0 15.0 0.00 0.00 0.00 1013.7
20260503025525 66 243 8.0 15.0 0.00 0.00 0.00 1013.8
20260503025025 66 239 6.0 17.0 0.00 0.00 0.00 1013.5
20260503024540 66 245 7.0 17.0 0.00 0.00 0.00 1013.5
20260503024025 66 275 9.0 17.0 0.00 0.00 0.00 1013.6
20260503023528 66 248 9.0 17.0 0.00 0.00 0.00 1013.2
20260503023036 66 259 7.0 18.0 0.00 0.00 0.00 1013.5
20260503022527 67 290 9.0 18.0 0.00 0.00 0.00 1013.5
20260503022028 67 274 9.0 16.0 0.00 0.00 0.00 1013.4
20260503021538 67 274 8.0 12.0 0.00 0.00 0.00 1013.2
20260503021025 67 279 7.0 12.0 0.00 0.00 0.00 1013.1
20260503020527 67 268 6.0 12.0 0.00 0.00 0.00 1013.0
20260503020036 67 265 6.0 12.0 0.00 0.00 0.00 1013.0
20260503015528 67 252 6.0 11.0 0.00 0.00 0.00 1012.8
20260503015025 67 257 6.0 10.0 0.00 0.00 0.00 1012.8
20260503014548 67 248 6.0 10.0 0.00 0.00 0.00 1012.8
20260503014025 67 241 3.0 10.0 0.00 0.00 0.00 1012.8
20260503013528 67 282 5.0 10.0 0.00 0.00 0.00 1012.7
20260503013038 67 284 5.0 10.0 0.00 0.00 0.00 1012.6
20260503012525 68 141 2.0 7.0 0.00 0.00 0.00 1012.8
20260503012026 68 283 4.0 7.0 0.00 0.00 0.00 1012.8
20260503011537 68 268 3.0 7.0 0.00 0.00 0.00 1012.8
20260503011025 68 291 3.0 7.0 0.00 0.00 0.00 1012.7
20260503010526 69 268 2.0 5.0 0.00 0.00 0.00 1012.7
20260503010037 69 286 1.0 6.0 0.00 0.00 0.00 1012.8
20260503005527 70 286 1.0 6.0 0.00 0.00 0.00 1012.8
20260503005028 70 286 3.0 6.0 0.00 0.00 0.00 1012.9
20260503004536 72 99 1.0 5.0 0.00 0.00 0.00 1012.9
20260503004030 74 285 0.0 3.0 0.00 0.00 0.00 1012.9
20260503003526 76 158 0.0 3.0 0.00 0.00 0.00 1013.0
20260503003044 74 0 0.0 3.0 0.00 0.00 0.00 1012.8
20260503002530 74 0 0.0 3.0 0.00 0.00 0.00 1012.9
20260503002029 72 239 0.0 3.0 0.00 0.00 0.00 1012.9
20260503001543 73 0 0.0 3.0 0.00 0.00 0.00 1012.8
20260503001025 72 277 0.0 2.0 0.00 0.00 0.00 1012.8
20260503000525 72 280 0.0 4.0 0.00 0.00 0.00 1012.9
20260503000040 72 0 1.0 4.0 0.00 0.00 0.00 1013.0
20260502235525 72 311 1.0 4.0 0.00 0.00 0.00 1013.1
20260502235025 74 268 1.0 4.0 0.00 0.00 0.00 1012.9
20260502234546 76 311 1.0 3.0 0.00 0.00 0.00 1012.9
20260502234027 76 268 1.0 5.0 0.00 0.00 0.00 1012.9
20260502233530 77 243 1.0 5.0 0.00 0.00 0.00 1013.0
20260502233037 80 280 0.0 5.0 0.00 0.00 0.00 1013.1
20260502232528 78 12 1.0 6.0 0.00 0.00 0.00 1013.2
20260502232026 78 278 2.0 6.0 0.00 0.00 0.00 1013.2
20260502231541 78 302 1.0 5.0 0.00 0.00 0.00 1013.3
20260502231030 78 39 1.0 8.0 0.00 0.00 0.00 1013.4
20260502230526 78 252 2.0 9.0 0.00 0.00 0.00 1013.4
20260502230046 79 297 3.0 9.0 0.00 0.00 0.00 1013.4
20260502225527 83 285 1.0 6.0 0.00 0.00 0.00 1013.6
20260502225027 81 22 2.0 6.0 0.00 0.00 0.00 1013.4
20260502224539 83 141 1.0 5.0 0.00 0.00 0.00 1013.7
20260502224026 82 286 1.0 6.0 0.00 0.00 0.00 1013.7
20260502223526 78 286 1.0 6.0 0.00 0.00 0.00 1013.8
20260502223040 81 31 1.0 4.0 0.00 0.00 0.00 1013.9
20260502222526 81 109 1.0 4.0 0.00 0.00 0.00 1014.0
20260502222028 79 51 1.0 4.0 0.00 0.00 0.00 1014.1
20260502221540 80 192 1.0 5.0 0.00 0.00 0.00 1014.2
20260502221026 77 109 1.0 5.0 0.00 0.00 0.00 1014.2
20260502220526 74 283 2.0 6.0 0.00 0.00 0.00 1014.2
20260502220113 76 39 1.0 7.0 0.00 0.00 0.00 1014.3
20260502215525 77 0 1.0 7.0 0.00 0.00 0.00 1014.5
20260502215028 76 311 3.0 7.0 0.00 0.00 0.00 1014.4
20260502214541 77 7 2.0 6.0 0.00 0.00 0.00 1014.5
20260502214026 79 22 1.0 5.0 0.00 0.00 0.00 1014.6
20260502213526 76 124 1.0 5.0 0.00 0.00 0.00 1014.6
20260502213039 73 254 1.0 5.0 0.00 0.00 0.00 1014.6
20260502212528 73 131 1.0 4.0 0.00 0.00 0.00 1014.8
20260502212027 74 268 1.0 4.0 0.00 0.00 0.00 1014.9
20260502211540 74 112 1.0 4.0 0.00 0.00 0.00 1014.9
20260502211027 74 268 1.0 5.0 0.00 0.00 0.00 1015.1
20260502210526 72 0 1.0 5.0 0.00 0.00 0.00 1015.3
20260502210041 73 286 1.0 5.0 0.00 0.00 0.00 1015.2
20260502205526 73 219 1.0 6.0 0.00 0.00 0.00 1015.2
20260502205028 72 133 1.0 6.0 0.00 0.00 0.00 1015.4
20260502204537 70 261 1.0 6.0 0.00 0.00 0.00 1015.4
20260502204027 70 231 1.0 5.0 0.00 0.00 0.00 1015.4
20260502203526 68 0 1.0 5.0 0.00 0.00 0.00 1015.5
20260502203044 67 183 1.0 5.0 0.00 0.00 0.00 1015.4
20260502202526 69 5 1.0 5.0 0.00 0.00 0.00 1015.6
20260502202026 70 99 1.0 5.0 0.00 0.00 0.00 1015.5
20260502201541 72 216 1.0 5.0 0.00 0.00 0.00 1015.7
20260502201026 72 64 1.0 4.0 0.00 0.00 0.00 1015.7
20260502200527 71 0 1.0 4.0 0.00 0.00 0.00 1015.8
20260502200036 70 216 1.0 6.0 0.00 0.00 0.00 1015.8
20260502195531 68 268 2.0 6.0 0.00 0.00 0.00 1015.8
20260502195028 67 341 1.0 6.0 0.00 0.00 0.00 1015.9
20260502194547 65 99 2.0 6.0 0.00 0.00 0.00 1015.9
20260502194027 64 319 1.0 6.0 0.00 0.00 0.00 1016.1
20260502193530 67 291 1.0 5.0 0.00 0.00 0.00 1016.2
20260502193037 66 280 1.0 11.0 0.00 0.00 0.00 1016.1
20260502192526 64 0 1.0 11.0 0.00 0.00 0.00 1016.2
20260502192026 63 262 3.0 11.0 0.00 0.00 0.00 1016.0
20260502191541 59 236 3.0 16.0 0.00 0.00 0.00 1016.1
20260502191027 58 284 4.0 16.0 0.00 0.00 0.00 1016.1
20260502190526 56 288 7.0 16.0 0.00 0.00 0.00 1016.1
20260502190037 59 298 2.0 12.0 0.00 0.00 0.00 1016.0
20260502185526 58 291 2.0 10.0 0.00 0.00 0.00 1016.1
20260502185026 59 28 1.0 4.0 0.00 0.00 0.00 1015.8
20260502184540 59 0 1.0 4.0 0.00 0.00 0.00 1015.9
20260502184026 62 276 1.0 4.0 0.00 0.00 0.00 1015.8
20260502183531 63 338 0.0 2.0 0.00 0.00 0.00 1016.0
20260502183048 63 295 0.0 2.0 0.00 0.00 0.00 1016.0
20260502182531 61 109 0.0 2.0 0.00 0.00 0.00 1016.2
20260502182027 61 236 0.0 4.0 0.00 0.00 0.00 1016.2
20260502181538 59 99 1.0 4.0 0.00 0.00 0.00 1016.4
20260502181028 59 158 0.0 3.0 0.00 0.00 0.00 1016.5
20260502180529 59 0 0.0 4.0 0.00 0.00 0.00 1016.6
20260502164026 52 0 0.0 2.0 0.00 0.00 0.00 1016.9
20260502163526 52 0 0.0 4.0 0.00 0.00 0.00 1016.9
20260502163100 52 311 0.0 5.0 0.00 0.00 0.00 1017.1
20260502162530 51 295 1.0 5.0 0.00 0.00 0.00 1017.0
20260502162030 51 268 1.0 3.0 0.00 0.00 0.00 1017.0
20260502161537 51 268 1.0 2.0 0.00 0.00 0.00 1016.9
20260502161030 52 0 0.0 3.0 0.00 0.00 0.00 1017.0
20260502160535 52 0 0.0 3.0 0.00 0.00 0.00 1017.1
20260502152026 52 0 0.0 4.0 0.00 0.00 0.00 1017.1
20260502151538 52 114 1.0 6.0 0.00 0.00 0.00 1017.2
20260502151027 51 268 1.0 6.0 0.00 0.00 0.00 1017.2
20260502150526 51 286 1.0 6.0 0.00 0.00 0.00 1017.3
20260502130527 48 280 3.0 7.0 0.00 0.00 0.00 1016.9
20260502123527 48 290 3.0 9.0 0.00 0.00 0.00 1016.9
20260502123037 48 275 4.0 9.0 0.00 0.00 0.00 1016.9
20260502122526 49 201 3.0 9.0 0.00 0.00 0.00 1016.9
20260502122026 48 285 5.0 9.0 0.00 0.00 0.00 1017.1
20260502121536 49 300 4.0 10.0 0.00 0.00 0.00 1016.9
20260502121026 49 247 3.0 10.0 0.00 0.00 0.00 1016.9
20260502120526 49 280 4.0 10.0 0.00 0.00 0.00 1016.8
20260502115529 49 282 2.0 6.0 0.00 0.00 0.00 1016.8
20260502115025 49 286 3.0 6.0 0.00 0.00 0.00 1016.7
20260502114539 49 295 2.0 5.0 0.00 0.00 0.00 1016.8
20260502114026 49 292 2.0 5.0 0.00 0.00 0.00 1016.5
20260502113530 49 285 1.0 5.0 0.00 0.00 0.00 1016.7
20260502113037 49 290 3.0 5.0 0.00 0.00 0.00 1016.6
20260502112529 49 248 2.0 5.0 0.00 0.00 0.00 1016.6
20260502112029 49 311 1.0 8.0 0.00 0.00 0.00 1016.6
20260502111537 49 90 2.0 8.0 0.00 0.00 0.00 1016.7
20260502111026 49 280 3.0 8.0 0.00 0.00 0.00 1016.6
20260502110525 49 291 0.0 7.0 0.00 0.00 0.00 1016.7
20260502110038 49 285 3.0 12.0 0.00 0.00 0.00 1017.0
20260502105525 49 252 4.0 12.0 0.00 0.00 0.00 1016.7
20260502105025 49 290 8.0 12.0 0.00 0.00 0.00 1016.8
20260502104540 49 290 3.0 8.0 0.00 0.00 0.00 1016.7
20260502104025 51 315 1.0 3.0 0.00 0.00 0.00 1016.6
20260502103526 51 0 0.0 3.0 0.00 0.00 0.00 1016.6
20260502103038 51 0 1.0 3.0 0.00 0.00 0.00 1016.7
20260502102525 51 39 0.0 3.0 0.00 0.00 0.00 1016.7
20260502102026 50 236 0.0 4.0 0.00 0.00 0.00 1016.8
20260502101536 50 0 1.0 4.0 0.00 0.00 0.00 1017.0
20260502101026 50 0 1.0 3.0 0.00 0.00 0.00 1017.1
20260502100526 50 285 0.0 5.0 0.00 0.00 0.00 1017.1
20260502091027 49 0 3.0 6.0 0.00 0.00 0.00 1018.0
20260502090526 50 283 3.0 6.0 0.00 0.00 0.00 1017.8
20260502071025 52 341 6.0 11.0 0.00 0.00 0.00 1017.8
20260502070526 52 268 6.0 11.0 0.00 0.00 0.00 1017.8
20260502070051 52 277 4.0 10.0 0.00 0.00 0.00 1018.0
20260502065528 52 120 5.0 10.0 0.00 0.00 0.00 1017.7
20260502065027 52 272 7.0 10.0 0.00 0.00 0.00 1017.7
20260502064544 53 297 5.0 10.0 0.00 0.00 0.00 1017.6
20260502064029 53 290 2.0 6.0 0.00 0.00 0.00 1017.7
20260502063526 54 214 1.0 4.0 0.00 0.00 0.00 1017.6
20260502063040 54 39 1.0 6.0 0.00 0.00 0.00 1017.7
20260502062526 54 355 0.0 6.0 0.00 0.00 0.00 1017.7
20260502062025 54 212 1.0 6.0 0.00 0.00 0.00 1017.8
20260502061536 54 298 2.0 6.0 0.00 0.00 0.00 1017.9
20260502061025 54 259 2.0 7.0 0.00 0.00 0.00 1017.8
20260502060525 54 291 1.0 8.0 0.00 0.00 0.00 1017.9
20260502060036 54 322 1.0 12.0 0.00 0.00 0.00 1017.8
20260502055526 54 295 4.0 12.0 0.00 0.00 0.00 1017.7
20260502055028 54 286 2.0 9.0 0.00 0.00 0.00 1017.6
20260502054542 55 288 4.0 11.0 0.00 0.00 0.00 1017.6
20260502054025 55 286 5.0 11.0 0.00 0.00 0.00 1017.5
20260502053526 55 291 6.0 12.0 0.00 0.00 0.00 1017.6
20260502053043 56 257 4.0 12.0 0.00 0.00 0.00 1017.6
20260502052526 56 286 8.0 12.0 0.00 0.00 0.00 1017.6
20260502052026 56 12 3.0 10.0 0.00 0.00 0.00 1017.7
20260502051537 56 231 5.0 10.0 0.00 0.00 0.00 1017.6
20260502051026 57 227 4.0 13.0 0.00 0.00 0.00 1017.4
20260502050526 57 275 3.0 13.0 0.00 0.00 0.00 1017.5
20260502050037 57 320 8.0 13.0 0.00 0.00 0.00 1017.7
20260502045526 57 272 4.0 13.0 0.00 0.00 0.00 1017.4
20260502045029 58 286 3.0 13.0 0.00 0.00 0.00 1017.1
20260502044539 58 265 4.0 12.0 0.00 0.00 0.00 1017.2
20260502044025 58 308 4.0 11.0 0.00 0.00 0.00 1017.1
20260502043526 58 230 3.0 12.0 0.00 0.00 0.00 1016.8
20260502043041 59 298 4.0 17.0 0.00 0.00 0.00 1016.9
20260502042525 59 276 6.0 17.0 0.00 0.00 0.00 1017.0
20260502042025 59 285 7.0 17.0 0.00 0.00 0.00 1016.7
20260502041545 60 286 2.0 7.0 0.00 0.00 0.00 1016.8
20260502041029 60 99 1.0 13.0 0.00 0.00 0.00 1016.7
20260502040527 60 112 3.0 15.0 0.00 0.00 0.00 1016.9
20260502040039 61 281 3.0 15.0 0.00 0.00 0.00 1016.7
20260502035526 61 30 4.0 15.0 0.00 0.00 0.00 1016.6
20260502035027 62 193 3.0 14.0 0.00 0.00 0.00 1016.5
20260502034540 62 120 3.0 13.0 0.00 0.00 0.00 1016.4
20260502034027 63 277 2.0 13.0 0.00 0.00 0.00 1016.1
20260502033524 63 257 3.0 13.0 0.00 0.00 0.00 1016.2
20260502033040 63 158 3.0 13.0 0.00 0.00 0.00 1016.2
20260502032525 64 249 4.0 13.0 0.00 0.00 0.00 1016.1
20260502032026 64 49 4.0 11.0 0.00 0.00 0.00 1016.1